星链-5387 (STARLINK-5387 )

导读

STARLINK-5387是美国太空探索技术公司(SpaceX)星链(Starlink)互联网卫星星座中的一颗卫星,于2022年12月28日发射入轨,属于星链星座第二批组网卫星,主要为全球尤其是偏远地区提供高速互联网接入服务,助力推进星链全球覆盖的部署进程。

Basic Information
目录编号:
54842
目录名称:
STARLINK-5387
国际标识:
2022-177Y
轨道中心:
EARTH
卫星名称:
星链-5387
卫星全名:
星链-5387 (STARLINK-5387 )
卫星状态:
在轨 (已飞行1347 天)
发射日期:
2022-12-28 UTC
国别 :
美国 (US)
星等 :
--
Orbit Information
数据来源 国际轨道数据 AOE轨道数据
星历时间 2026-09-04T22:10:12+0800
14小时前
查看轨道信息
2026-09-03T23:00:00+0800
1天前
查看轨道信息
半长轴 6861.229km 6861.207km
偏心率 0.0000689 0.0000027
轨道倾角 43.003° 43.002°
近地点辐角 275.340° 351.690°
升交点赤经 202.331° 207.787°
平近点角 84.737° 93.131°
近地点 482.619km 483.051km
远地点 483.565km 483.089km
周期 94.268分钟 94.267分钟
每日圈数 15.275658 15.275732
Detailed Information
固有亮度:
5
最大亮度:
2.5
卫星平台:
Starlink v1.5
覆盖范围:
全球
运营商:
太空探索技术公司
运营商所在国:
美国
制造商(研发单位):
太空探索技术公司
制造商所在国:
美国
使用方式:
暂无
Satellite Introduction
星链(Starlink)计划是由太空探索技术公司(SpaceX)提出的一个巨型低轨卫星互联网星座项目,计划在2019年至2024年间在太空搭建由约1.2万颗卫星组成的“星链”网络,其中1584颗将部署在地球上空550千米处的近地轨道,并从2020年开始工作。该卫星仍在工作。
2D Orbit Map
3D Orbit Map
Orbit Altitude Analysis Chart
Orbit Inclination Analysis Chart
Orbit Comprehensive Analysis Chart
View Comprehensive Chart
Conjunction Data List
Event ID Objects TCA Miss Dist (km) Collision Risk Probability Collision Risk Index (CRI) Action
CDM_260907-142805-484206-649821
2026-09-07T
14:28:03+0000
2.706 km
极远距离
1.215139E-6 低风险 0.37